This is the latest recevied weather packets stored in our database for station/object NE1CU. If no packets are shown the sender has not sent any weather packets the latest 10 day(s).
| Time | Temp. | Humidity | Pressure | Rain* | Wind** | Luminosity | Snow |
|---|---|---|---|---|---|---|---|
| 1777399015 | 18.89° C | 42% | 1020.3 hPa | 0 mm | - | 580 W/m² | - |
| 1777398712 | 18.89° C | 40% | 1020.5 hPa | 0 mm | - | 586 W/m² | - |
| 1777398408 | 18.89° C | 42% | 1020.6 hPa | 0 mm | - | 592 W/m² | - |
| 1777398105 | 18.89° C | 41% | 1020.7 hPa | 0 mm | - | 552 W/m² | - |
| 1777397802 | 18.89° C | 43% | 1020.7 hPa | 0 mm | - | 626 W/m² | - |
| 1777397497 | 18.89° C | 43% | 1020.7 hPa | 0 mm | - | 645 W/m² | - |
| 1777397194 | 18.33° C | 41% | 1020.7 hPa | 0 mm | - | 681 W/m² | - |
| 1777396891 | 18.89° C | 40% | 1020.9 hPa | 0 mm | - | 705 W/m² | - |
| 1777396587 | 19.44° C | 42% | 1020.9 hPa | 0 mm | - | 752 W/m² | - |
| 1777396285 | 19.44° C | 43% | 1020.9 hPa | 0 mm | - | 841 W/m² | - |
| 1777395981 | 18.89° C | 40% | 1020.9 hPa | 0 mm | - | 849 W/m² | - |
| 1777395681 | 18.89° C | 41% | 1020.9 hPa | 0 mm | - | 654 W/m² | - |
| 1777395377 | 19.44° C | 39% | 1021 hPa | 0 mm | - | 849 W/m² | - |
| 1777395076 | 18.89° C | 41% | 1021.1 hPa | 0 mm | - | 871 W/m² | - |
| 1777394772 | 18.89° C | 41% | 1021.1 hPa | 0 mm | - | 802 W/m² | - |
| 1777394468 | 18.89° C | 43% | 1021.3 hPa | 0 mm | - | 963 W/m² | - |
| 1777394165 | 18.33° C | 39% | 1021.2 hPa | 0 mm | - | 937 W/m² | - |
| 1777393861 | 18.33° C | 42% | 1021.1 hPa | 0 mm | - | 835 W/m² | - |
| 1777393559 | 18.33° C | 40% | 1021.2 hPa | 0 mm | - | 774 W/m² | - |
| 1777393255 | 18.89° C | 39% | 1021.1 hPa | 0 mm | - | 785 W/m² | - |
| 1777392953 | 18.89° C | 42% | 1021.2 hPa | 0 mm | - | 824 W/m² | - |
| 1777392653 | 17.78° C | 45% | 1021.5 hPa | 0 mm | - | 845 W/m² | - |
| 1777392350 | 17.78° C | 46% | 1021.4 hPa | 0 mm | - | 732 W/m² | - |
| 1777392050 | 17.22° C | 46% | 1021.5 hPa | 0 mm | - | 808 W/m² | - |
| 1777391744 | 17.22° C | 46% | 1021.6 hPa | 0 mm | - | 762 W/m² | - |
* Rain latest hour (hover to see other rain measurements)
** Current wind speed in m/s (hover to see current wind gust speed)